TimeEDT,TemperatureF,Dew PointF,Humidity,Sea Level PressureIn,VisibilityMPH,Wind Direction,Wind SpeedMPH,Gust SpeedMPH,PrecipitationIn,Events,Conditions,WindDirDegrees,DateUTC
12:53 AM,69.1,66.0,90,30.04,10.0,North,11.5,-,0.00,,Overcast,360,2013-10-15 04:53:00
1:35 AM,69.8,66.2,88,30.02,9.0,North,10.4,-,N/A,,Overcast,360,2013-10-15 05:35:00
1:53 AM,69.1,66.0,90,30.02,10.0,North,8.1,-,N/A,,Overcast,360,2013-10-15 05:53:00
2:23 AM,69.8,66.2,88,30.02,10.0,North,6.9,-,N/A,,Overcast,360,2013-10-15 06:23:00
2:53 AM,70.0,66.0,87,30.02,10.0,North,8.1,-,N/A,,Overcast,350,2013-10-15 06:53:00
3:12 AM,69.8,66.2,88,30.02,10.0,North,10.4,-,N/A,,Overcast,350,2013-10-15 07:12:00
3:49 AM,69.8,64.4,83,30.02,10.0,North,10.4,-,N/A,,Overcast,360,2013-10-15 07:49:00
3:53 AM,70.0,64.9,84,30.02,10.0,North,9.2,-,N/A,,Overcast,360,2013-10-15 07:53:00
4:38 AM,69.8,64.4,83,30.01,10.0,North,11.5,-,N/A,,Overcast,360,2013-10-15 08:38:00
4:53 AM,69.1,64.9,87,30.01,10.0,North,11.5,-,N/A,,Overcast,360,2013-10-15 08:53:00
5:50 AM,69.8,64.4,83,30.02,10.0,North,12.7,-,N/A,,Overcast,10,2013-10-15 09:50:00
5:53 AM,69.1,64.0,84,30.02,10.0,North,12.7,-,N/A,,Overcast,10,2013-10-15 09:53:00
6:22 AM,69.8,64.4,83,30.03,10.0,North,13.8,-,N/A,,Overcast,10,2013-10-15 10:22:00
6:53 AM,69.1,64.0,84,30.04,10.0,North,16.1,-,N/A,,Overcast,360,2013-10-15 10:53:00
7:22 AM,68.0,62.6,83,30.02,10.0,North,12.7,-,N/A,,Overcast,10,2013-10-15 11:22:00
7:53 AM,68.0,64.0,87,30.03,10.0,North,12.7,-,N/A,,Overcast,10,2013-10-15 11:53:00
8:11 AM,69.8,64.4,83,30.03,10.0,NNE,11.5,-,N/A,,Overcast,20,2013-10-15 12:11:00
8:53 AM,69.1,64.0,84,30.05,10.0,North,9.2,-,N/A,,Overcast,360,2013-10-15 12:53:00
9:53 AM,69.1,64.0,84,30.06,10.0,North,9.2,-,N/A,,Overcast,360,2013-10-15 13:53:00
10:43 AM,69.8,62.6,78,30.05,10.0,NNE,13.8,-,N/A,,Overcast,20,2013-10-15 14:43:00
10:53 AM,69.1,63.0,81,30.05,10.0,North,11.5,-,N/A,,Overcast,10,2013-10-15 14:53:00
11:35 AM,69.8,62.6,78,30.05,10.0,North,12.7,-,N/A,,Overcast,10,2013-10-15 15:35:00
11:53 AM,69.1,62.1,78,30.06,10.0,North,12.7,19.6,N/A,,Overcast,10,2013-10-15 15:53:00
12:53 PM,70.0,62.1,76,30.05,10.0,NNE,11.5,23.0,N/A,,Overcast,20,2013-10-15 16:53:00
1:53 PM,71.1,63.0,75,30.03,10.0,North,16.1,23.0,N/A,,Overcast,10,2013-10-15 17:53:00
2:53 PM,71.1,63.0,75,30.00,10.0,NNE,17.3,25.3,N/A,,Overcast,20,2013-10-15 18:53:00
3:53 PM,70.0,63.0,78,30.00,10.0,NNE,12.7,19.6,N/A,,Overcast,30,2013-10-15 19:53:00
4:53 PM,70.0,63.0,78,30.00,10.0,NNE,11.5,-,N/A,,Overcast,20,2013-10-15 20:53:00
5:04 PM,71.6,62.6,73,30.00,10.0,NNE,10.4,-,N/A,,Overcast,30,2013-10-15 21:04:00
5:53 PM,70.0,63.0,78,30.00,10.0,NNE,8.1,-,N/A,,Overcast,20,2013-10-15 21:53:00
6:53 PM,69.1,63.0,81,30.01,10.0,North,8.1,-,N/A,,Overcast,10,2013-10-15 22:53:00
7:53 PM,69.1,62.1,78,30.02,10.0,NNE,6.9,-,N/A,,Overcast,20,2013-10-15 23:53:00
8:14 PM,68.0,62.6,83,30.02,10.0,NNE,6.9,-,N/A,,Scattered Clouds,20,2013-10-16 00:14:00
8:53 PM,68.0,62.1,81,30.02,10.0,North,4.6,-,N/A,,Mostly Cloudy,360,2013-10-16 00:53:00
9:53 PM,66.9,62.1,84,30.03,10.0,Calm,Calm,-,N/A,,Clear,0,2013-10-16 01:53:00
10:53 PM,66.9,63.0,87,30.03,10.0,North,3.5,-,N/A,,Clear,360,2013-10-16 02:53:00
11:53 PM,66.0,63.0,90,30.03,10.0,NNW,4.6,-,N/A,,Partly Cloudy,330,2013-10-16 03:53:00